Weather History for CYYG - July, 2013

Change the Weather History Date:

Friday, July 26, 2013

  Actual Average Record
Temperature  
Mean Temperature 72 °F -  
Max Temperature 83 °F 72 °F 86 °F (2007)
Min Temperature 61 °F 56 °F 42 °F (2002)
Cooling Degree Days 7    
Growing Degree Days 22 (Base 50)    
Moisture  
Dew Point 67 °F    
Average Humidity 91    
Maximum Humidity 100    
Minimum Humidity 74    
Precipitation  
Precipitation 0.55 in 0.12 in - ()
Sea Level Pressure  
Sea Level Pressure 30.14 in    
Wind  
Wind Speed 8 mph ()    
Max Wind Speed 17 mph    
Max Gust Speed 23 mph    
Visibility 8.2 miles    
Events Rain    
Averages and records for this station are not official NWS values.
T = Trace of Precipitation, MM = Missing Value Source: Averaged Metar Reports

Daily Weather History Graph

Daily Weather History Graph

Search for Another Location

Airport or City:

Trip Planner

Search our weather history database for the weather conditions in past years. The results will help you decide how hot, cold, wet, or windy it might be!

Date:

Astronomy

Jul. 26, 2013 Rise Set
Actual Time 5:47 AM ADT 8:50 PM ADT
Civil Twilight 5:11 AM ADT 9:25 PM ADT
Nautical Twilight 4:25 AM ADT 10:11 PM ADT
Astronomical Twilight 3:29 AM ADT 11:06 PM ADT
Moon 10:40 PM ADT (7/26) 10:38 AM ADT (7/26)
Length of Visible Light 16h 14m
Length of Day
15h 02m
Waning Gibbous, 80% of the Moon is Illuminated
Jul 26
Waning Gibbous
Jul 29
Last Quarter
Aug 6
New
Aug 14
First Quarter
Aug 20
Full

Hourly Weather History & Observations

Time (ADT) Temp. Heat Index Dew Point Humidity Pressure Visibility Wind Dir Wind Speed Gust Speed Precip Events Conditions
12:00 AM 60.8 °F - 60.8 °F 100% 30.24 in 4.0 mi East 5.8 mph - N/A   Overcast
1:00 AM 60.8 °F - 60.8 °F 100% 30.23 in 4.0 mi East 5.8 mph - N/A   Overcast
2:00 AM 60.8 °F - 60.8 °F 100% 30.22 in 4.0 mi ESE 9.2 mph - N/A   Overcast
2:30 AM 62.6 °F - 60.8 °F 94% 30.21 in 6.0 mi East 5.8 mph - N/A Rain Light Rain
3:00 AM 62 °F - 61 °F 96% 30.21 in 6 mi East 6.9 mph - - Rain Light Rain
3:00 AM 62.6 °F - 60.8 °F 94% 30.20 in 6.0 mi East 6.9 mph - N/A Rain Light Rain
4:00 AM 62.6 °F - 62.6 °F 100% 30.19 in 5.0 mi East 6.9 mph - N/A Rain Light Rain
4:19 AM 62.6 °F - 62.6 °F 100% 30.20 in 5.0 mi East 6.9 mph - N/A Rain Rain
5:00 AM 62.6 °F - 62.6 °F 100% 30.19 in 5.0 mi East 6.9 mph - N/A Rain Light Rain
6:00 AM 62.6 °F - 62.6 °F 100% 30.17 in 6.0 mi East 8.1 mph - N/A Rain Light Rain
6:14 AM 62.6 °F - 62.6 °F 100% 30.16 in 4.0 mi East 6.9 mph - N/A Rain Rain
6:26 AM 62.6 °F - 62.6 °F 100% 30.18 in 2.5 mi East 6.9 mph - N/A Rain Heavy Rain
6:45 AM 62.6 °F - 62.6 °F 100% 30.16 in 2.5 mi ENE 9.2 mph - N/A Rain Rain
7:00 AM 64.4 °F - 62.6 °F 94% 30.15 in 3.0 mi ENE 9.2 mph - N/A Rain Rain
7:50 AM 64.4 °F - 62.6 °F 94% 30.15 in 2.0 mi NNE 9.2 mph - N/A Rain Heavy Rain
8:00 AM 64.4 °F - 64.4 °F 100% 30.16 in 3.0 mi NNE 4.6 mph - N/A Rain Rain
8:21 AM 64.4 °F - 64.4 °F 100% 30.16 in 1.5 mi NNE 6.9 mph - N/A Rain Light Rain
9:00 AM 65 °F - 65 °F 100% 30.15 in 2 mi NE 5.8 mph - - Rain Light Drizzle
9:00 AM 66.2 °F - 64.4 °F 94% 30.15 in 2.0 mi NE 5.8 mph - N/A   Light Drizzle
9:20 AM 66.2 °F - 66.2 °F 100% 30.15 in 5.0 mi East 6.9 mph - N/A Rain Light Rain
9:39 AM 68.0 °F - 66.2 °F 94% 30.15 in 5.0 mi ESE 5.8 mph - N/A Rain Light Rain
10:00 AM 68.0 °F - 68.0 °F 100% 30.14 in 1.5 mi SE 3.5 mph - N/A Rain Heavy Rain Showers
10:05 AM 68.0 °F - 68.0 °F 100% 30.14 in 5.0 mi ESE 6.9 mph - N/A Rain Light Rain Showers
10:46 AM 69.8 °F - 69.8 °F 100% 30.14 in 8.0 mi SSE 9.2 mph - N/A   Overcast
11:00 AM 71.6 °F - 69.8 °F 94% 30.14 in 6.0 mi SSE 6.9 mph - N/A Rain Light Rain Showers
11:31 AM 73.4 °F - 71.6 °F 94% 30.14 in 8.0 mi SSE 10.4 mph - N/A   Mostly Cloudy
11:43 AM 73.4 °F - 71.6 °F 94% 30.13 in 8.0 mi SSE 11.5 mph - N/A   Mostly Cloudy
12:00 PM 75.2 °F - 71.6 °F 89% 30.13 in 12.0 mi SSE 13.8 mph - N/A   Overcast
1:00 PM 78.8 °F - 73.4 °F 83% 30.12 in 12.0 mi SSE 12.7 mph 19.6 mph N/A   Mostly Cloudy
1:11 PM 78.8 °F - 73.4 °F 83% 30.12 in 15.0 mi SSE 17.3 mph - N/A   Mostly Cloudy
2:00 PM 78.8 °F - 73.4 °F 83% 30.11 in 15.0 mi SSE 15.0 mph - N/A   Mostly Cloudy
3:00 PM 80 °F - 75 °F 81% 30.10 in 15 mi SSE 15.0 mph - - Rain Light Rain Showers
3:00 PM 80.6 °F 86.2 °F 75.2 °F 84% 30.10 in 15.0 mi SSE 13.8 mph 20.7 mph N/A Rain Light Rain Showers
3:52 PM 82.4 °F 88.2 °F 73.4 °F 74% 30.09 in 15.0 mi SSE 16.1 mph 21.9 mph N/A   Mostly Cloudy
4:00 PM 82.4 °F 88.2 °F 73.4 °F 74% 30.09 in 15.0 mi SSE 13.8 mph 20.7 mph N/A   Mostly Cloudy
5:00 PM 80.6 °F 84.6 °F 71.6 °F 74% 30.08 in 15.0 mi South 13.8 mph - N/A   Mostly Cloudy
6:00 PM 80.6 °F 84.6 °F 71.6 °F 74% 30.08 in 15.0 mi SSE 13.8 mph - N/A   Mostly Cloudy
7:00 PM 78.8 °F - 69.8 °F 74% 30.07 in 15.0 mi South 13.8 mph 19.6 mph N/A   Mostly Cloudy
8:00 PM 77.0 °F - 69.8 °F 78% 30.07 in 15.0 mi SSE 13.8 mph - N/A   Mostly Cloudy
9:00 PM 75 °F - 70 °F 79% 30.06 in 15 mi SSE 16.1 mph - -   Partly Cloudy
9:00 PM 75.2 °F - 69.8 °F 83% 30.06 in 15.0 mi SSE 15.0 mph 23.0 mph N/A   Mostly Cloudy
10:00 PM 73.4 °F - 69.8 °F 88% 30.06 in 15.0 mi SSE 15.0 mph 23.0 mph N/A   Mostly Cloudy
11:00 PM 73.4 °F - 69.8 °F 88% 30.05 in 15.0 mi SSE 12.7 mph 19.6 mph N/A   Mostly Cloudy